Location: Schommer Observatory
(40.5200°N, 74.4500°W)
Time: 06:25:53
(UTC-04:00)

N. Korean satellite - Visible Passes

Search period start: 23 March 2017 00:00
Search period end: 02 April 2017 00:00
Orbit: 461 x 520 km, 97.2° (Epoch: 21 March)

Date Brightness Start Highest point End Pass type
(mag) Time Alt. Az. Time Alt. Az. Time Alt. Az.
23 Mar 8.6 19:48:40 10° SSW 19:51:58 33° W 19:55:14 10° NNW visible
26 Mar 9.7 20:15:48 10° SW 20:18:03 16° W 20:20:17 10° NW visible
27 Mar 8.8 19:52:12 10° SSW 19:55:23 30° W 19:58:32 10° NW visible
30 Mar 9.8 20:19:30 10° SW 20:21:25 14° W 20:23:21 10° WNW visible
31 Mar 9.0 19:55:43 10° SSW 19:58:44 26° W 20:01:45 10° NW visible
